Dewpoint
59 59 58 58 58 58 58 57 57 57 58 58 58 58 58 58 58 58 58 58 59 59 59 59 59 59 59 59 59 59 59 59 59 59 59 60 60 60 61 63 64 64 64 63 62 61 61 62 62 61 61 61 60 60 60 60 60 60 60 60 60 60 60 63 64 64 64 64 65 65 65 65 64 64 65 65 65 65 65 65 65 66 66 66 66 66 66 67 67 68 69 70 71 72 73 73 73 73 73 73 74 74 75
58 58 58 58 57 57 57 57 57 57 57 58 58 58 58 58 58 58 58 58 58 58 58 59 59 58 58 58 58 58 58 59 59 59 59 59 60 60 61 63 64 63 63 62 61 61 60 61 60 60 61 60 60 60 60 60 60 60 59 59 60 60 61 63 64 64 64 64 64 65 65 64 64 64 64 64 64 64 64 65 65 66 66 67 67 67 67 67 67 67 68 69 70 71 72 73 73 73 73 73 73 74 74
58 58 58 57 57 57 57 57 57 57 57 58 58 58 57 57 57 58 58 58 58 58 58 58 58 58 58 58 58 58 58 58 58 58 59 59 59 60 60 62 63 62 61 61 60 60 60 60 60 60 60 60 60 60 60 60 60 59 59 59 59 60 61 63 64 64 64 64 64 64 64 64 64 64 64 64 64 64 64 64 65 65 66 67 67 67 67 67 67 67 67 68 69 70 71 72 72 73 73 73 73 73 73
57 57 57 57 57 57 57 57 57 57 57 57 57 57 57 57 57 57 58 58 58 58 58 58 58 58 58 58 58 58 58 58 58 58 58 59 59 60 60 61 61 61 60 60 60 60 60 60 60 59 59 59 59 60 60 60 60 59 59 59 59 59 61 63 63 64 64 64 64 64 64 64 64 64 64 64 64 64 64 64 64 65 65 66 66 67 67 67 66 67 67 68 68 69 70 71 71 72 72 72 72 72 73
57 57 57 57 57 56 56 57 57 57 57 57 57 57 57 57 57 57 57 57 57 57 57 57 57 57 58 58 58 58 58 58 58 58 58 59 59 60 60 60 60 60 60 60 60 59 59 59 59 59 58 58 59 59 60 60 60 59 58 58 58 59 62 62 63 63 64 64 64 64 64 64 64 64 64 64 64 64 64 64 64 64 65 65 66 66 67 67 67 67 67 67 68 68 69 69 70 71 72 72 72 72 72
57 57 56 56 56 56 56 56 57 57 57 57 56 56 56 57 57 57 57 57 57 57 57 57 57 57 57 57 57 57 57 57 57 57 58 58 59 60 60 60 60 60 60 60 59 59 58 58 57 57 57 57 58 58 59 59 59 58 58 58 59 60 62 62 63 63 64 64 64 64 64 64 64 64 64 64 64 64 64 64 64 64 64 65 65 65 66 66 67 67 67 67 68 68 68 69 69 70 71 71 71 71 71
57 56 56 56 56 56 56 56 57 57 57 56 56 56 56 56 57 57 57 57 57 57 57 57 57 57 57 58 58 57 57 57 57 57 58 58 59 59 59 59 59 59 59 59 59 58 58 57 56 56 56 56 55 56 57 59 59 59 58 58 59 61 62 62 62 63 63 64 64 64 64 64 64 64 64 64 64 64 64 64 64 64 64 64 64 65 65 66 66 67 67 67 67 68 68 69 69 69 70 71 71 71 71
56 56 56 55 56 56 56 56 56 56 56 56 56 56 56 56 56 57 57 57 57 57 57 57 57 58 58 58 57 57 57 57 58 58 58 58 59 59 59 59 59 59 59 58 58 58 58 57 56 55 55 55 55 55 55 57 58 59 59 59 60 61 61 61 62 62 63 63 63 63 64 64 64 64 64 64 64 64 64 64 64 64 64 64 64 64 65 65 66 66 67 67 67 67 67 68 69 69 70 70 71 71 71
56 56 55 55 55 55 56 56 56 56 56 56 56 56 56 56 56 56 57 57 57 57 57 57 57 57 57 57 57 57 57 58 58 58 58 58 59 59 59 59 58 58 58 58 57 57 57 57 55 55 54 55 55 55 55 56 57 58 58 59 60 60 60 61 61 61 61 62 62 62 62 63 63 63 63 63 63 63 64 64 64 64 64 64 64 64 65 65 65 66 66 66 66 66 67 67 68 68 69 69 70 70 71
55 55 55 55 55 55 56 56 56 56 56 56 56 56 56 56 56 56 56 57 57 57 57 57 57 57 57 57 57 57 57 57 58 58 58 58 58 59 59 58 58 58 57 57 57 57 57 55 55 54 54 54 54 55 56 55 55 56 57 59 59 59 60 60 60 60 60 60 60 61 61 61 62 62 62 62 62 62 63 63 63 64 64 64 64 64 64 64 65 65 65 66 66 66 66 66 67 67 68 69 69 70 71
55 55 55 55 55 55 55 56 56 55 55 56 56 56 56 56 56 56 56 57 57 57 57 57 57 57 57 57 57 57 57 57 57 58 58 58 58 58 58 58 58 57 57 57 56 56 56 55 54 54 53 53 54 55 55 55 55 55 55 57 58 58 59 59 59 59 60 60 60 60 60 60 60 60 60 61 61 61 62 62 63 63 63 64 64 64 64 64 64 65 65 65 65 66 66 66 66 67 67 68 69 69 70
55 55 55 55 55 55 55 55 55 55 55 55 55 56 56 56 56 56 56 57 57 57 57 57 57 57 57 57 57 57 57 57 57 58 58 58 58 58 58 57 57 57 56 56 56 56 56 55 54 53 53 53 54 54 54 54 54 53 53 55 57 57 57 58 58 59 59 59 59 59 59 59 59 59 60 60 60 60 61 61 62 62 63 63 64 64 64 64 64 64 64 65 65 65 65 66 66 66 67 67 68 69 69
55 55 55 55 55 55 55 55 55 55 55 55 55 55 55 56 56 56 56 57 57 57 57 57 57 57 57 57 57 57 57 57 57 57 57 58 58 57 57 57 57 56 56 56 56 56 55 55 54 53 53 53 54 54 55 55 54 53 53 56 57 57 57 58 58 58 58 58 58 59 59 59 59 59 60 60 60 60 60 60 61 61 62 62 63 63 64 64 64 64 64 64 65 65 65 65 66 66 66 67 67 68 69
55 55 55 55 55 55 55 55 55 55 55 55 55 55 55 55 55 56 56 56 56 56 56 56 56 56 56 56 56 56 57 57 57 57 57 57 57 57 57 57 56 56 56 55 55 55 55 54 54 54 54 55 55 55 56 55 55 55 55 56 57 57 58 58 58 58 59 59 59 59 59 59 59 60 60 60 60 60 60 60 60 60 61 61 62 62 63 63 64 64 64 64 64 65 65 65 65 66 66 66 67 67 68
55 55 55 54 54 54 54 54 54 54 54 54 55 55 55 55 55 55 55 55 56 56 56 56 56 56 56 56 56 56 56 56 56 56 56 56 56 56 57 57 56 56 56 55 55 54 53 54 54 55 55 55 55 55 56 56 55 55 57 57 57 58 58 58 58 59 59 59 59 59 60 60 60 60 60 60 60 60 60 60 60 60 60 61 61 62 62 63 63 64 64 64 64 65 65 65 65 66 66 66 66 67 67
55 55 54 54 54 54 54 54 54 54 54 54 54 54 54 55 55 55 55 55 55 55 55 56 56 56 55 55 56 56 56 55 55 55 55 55 56 56 56 56 57 56 56 55 54 53 53 54 54 55 56 55 55 55 56 55 56 56 57 57 58 58 59 59 59 59 59 59 60 60 60 60 60 60 60 60 60 60 60 60 60 60 60 61 61 61 62 62 63 63 64 64 64 64 65 65 65 65 66 66 66 66 67
54 54 54 54 53 54 54 53 53 53 53 53 53 54 54 54 54 54 55 55 55 55 55 55 55 55 55 55 55 55 55 54 54 54 55 55 55 56 56 57 57 56 56 55 54 53 53 53 54 55 56 55 55 56 56 56 56 57 58 58 58 59 59 59 59 59 60 60 60 60 60 60 60 60 60 60 60 60 60 60 60 60 60 60 61 61 61 62 62 63 63 64 64 64 64 65 65 65 65 66 66 66 66
53 53 53 54 54 54 54 53 53 53 53 53 53 53 53 54 54 54 54 55 55 55 55 55 55 55 55 55 55 55 53 53 53 53 55 55 56 56 56 56 56 56 55 55 54 54 53 53 54 55 55 55 55 55 56 56 57 58 58 58 59 59 59 60 60 60 60 60 60 60 60 60 60 60 60 60 60 60 60 60 60 60 60 60 60 60 61 61 61 62 62 63 63 64 64 64 65 65 65 65 66 66 66
54 54 54 54 54 54 54 53 53 53 53 53 53 54 54 54 54 54 54 55 55 55 55 55 55 55 55 55 55 55 53 53 53 53 54 55 56 56 55 56 55 55 55 55 54 54 54 53 53 53 54 54 54 55 56 56 57 58 58 58 59 59 60 60 60 60 60 60 60 60 61 61 61 61 60 60 60 60 60 60 60 60 60 60 60 60 60 61 61 61 62 62 63 63 64 64 64 65 65 65 65 66 66
53 53 53 54 54 54 54 54 53 53 53 54 54 54 54 54 54 54 55 55 55 55 55 55 55 55 55 55 55 54 54 54 54 54 54 54 55 55 55 55 54 54 54 54 53 53 53 52 52 53 53 52 53 54 55 55 56 58 58 58 59 59 59 60 60 60 60 60 60 61 61 61 61 61 61 61 61 61 61 61 61 61 61 61 61 61 61 61 61 61 61 61 62 62 63 64 64 64 64 65 65 65 65
51 51 52 53 54 54 54 54 54 54 54 54 54 53 53 54 54 54 55 55 55 55 56 56 55 55 55 55 54 54 54 54 55 55 55 55 55 55 55 55 55 55 54 54 53 53 53 53 53 53 52 52 52 52 53 55 56 57 57 58 58 59 59 60 60 60 60 60 60 61 61 61 61 61 61 61 61 61 61 61 61 61 61 61 61 61 61 61 61 61 61 61 61 62 62 63 63 64 64 64 65 65 65
51 51 51 51 51 52 52 52 52 52 52 53 52 51 51 52 53 54 55 55 55 55 55 55 55 54 54 54 54 54 54 55 55 55 55 55 55 55 55 55 55 55 55 54 54 54 54 54 54 54 54 53 53 53 53 55 56 57 57 57 58 58 59 59 60 60 60 60 60 61 61 61 61 61 61 61 61 61 61 61 61 61 61 61 61 61 61 61 61 61 61 61 61 61 62 62 63 63 64 64 64 64 65
50 50 50 50 50 51 51 51 51 51 50 52 52 51 50 51 52 53 54 53 53 53 54 54 54 54 54 53 53 54 54 55 55 55 55 55 55 55 55 55 55 55 55 54 54 54 54 54 54 54 54 54 54 54 54 55 56 57 57 57 58 58 58 59 59 60 60 60 60 60 61 61 61 61 61 61 61 61 61 61 61 61 61 61 60 60 60 60 60 61 61 61 61 61 61 61 62 63 63 64 64 64 64
50 50 50 51 51 51 51 51 51 50 50 51 51 51 51 51 51 51 52 52 52 53 53 53 54 55 55 54 54 53 54 54 55 55 55 55 55 55 55 55 55 55 55 55 55 55 54 54 54 54 54 54 54 54 54 56 57 57 57 57 58 58 58 59 59 60 60 60 60 60 60 61 61 61 61 61 61 61 61 61 61 61 61 60 60 60 60 60 60 60 60 61 61 61 61 61 61 62 62 63 63 64 64
51 51 50 51 51 51 51 51 51 51 51 51 51 51 51 51 51 51 51 52 52 53 54 55 55 55 55 54 54 54 53 54 55 56 56 56 56 56 56 56 56 56 55 55 55 55 55 54 54 54 54 54 54 54 55 56 57 57 57 58 58 58 58 59 59 59 60 60 60 60 60 60 61 61 61 61 61 61 61 61 61 61 60 60 60 60 60 60 60 60 60 60 60 61 61 61 61 61 61 62 62 63 64
51 51 51 51 51 51 52 51 51 51 51 51 52 52 51 51 52 52 52 53 53 54 55 55 55 55 54 54 54 54 54 54 55 56 56 56 57 57 57 57 57 56 56 56 55 55 55 54 54 54 54 53 53 54 54 56 57 57 57 57 58 58 59 59 59 60 60 60 60 60 60 60 60 61 61 61 60 60 60 61 61 61 60 60 60 60 60 60 60 60 60 60 60 60 60 61 61 61 61 61 62 62 63
51 51 51 51 51 51 52 52 51 51 52 52 53 53 52 52 52 53 53 54 54 55 55 55 54 54 54 54 54 54 54 54 55 55 57 57 57 57 57 57 57 57 57 56 55 55 54 54 53 53 53 53 53 53 53 55 56 57 57 57 58 58 58 59 59 60 60 60 60 60 60 60 60 60 61 60 60 60 60 60 60 60 60 60 60 60 60 60 60 60 60 60 60 60 60 60 61 61 61 61 61 61 62
52 51 51 51 52 52 53 53 53 53 53 53 53 53 53 52 53 53 54 54 54 55 56 56 55 55 56 55 55 55 55 55 55 55 55 56 57 57 57 57 57 57 57 56 55 55 54 54 54 53 53 53 53 53 53 54 55 57 57 57 57 58 58 59 59 59 60 60 60 60 60 60 60 60 60 60 60 60 60 60 60 60 60 60 60 60 60 60 60 60 60 60 60 60 60 60 60 61 61 61 61 61 61
52 52 52 52 52 53 53 53 53 53 53 54 54 53 53 53 53 53 54 54 54 54 55 54 54 54 54 54 55 55 55 55 55 55 55 55 55 56 56 57 57 56 56 55 55 55 55 55 54 54 53 53 53 53 53 54 55 57 57 57 57 58 58 58 59 59 59 60 60 60 60 60 60 60 60 60 60 60 60 60 60 60 60 60 60 60 60 60 60 60 60 60 60 60 60 60 60 60 61 61 61 61 61
53 53 52 52 52 52 53 53 53 54 54 54 54 53 53 54 54 54 54 54 54 54 54 53 53 53 53 54 55 56 57 57 56 55 55 54 54 54 55 55 56 56 56 56 56 55 55 55 55 54 54 53 53 53 53 54 55 57 57 57 58 58 58 58 58 58 59 59 60 60 60 60 60 60 60 60 60 60 60 60 60 60 60 60 60 60 60 60 60 60 60 60 60 60 60 60 60 60 60 61 61 61 61
53 53 52 52 52 53 53 54 54 54 54 54 54 54 54 54 54 54 54 54 54 54 54 53 53 53 53 53 54 54 55 55 55 55 54 54 54 54 54 55 56 56 56 56 56 56 56 55 55 55 54 54 54 54 54 54 55 56 57 58 58 58 58 58 58 58 58 58 59 59 60 60 60 60 60 60 60 60 60 60 60 60 60 60 60 60 60 60 60 60 60 60 60 60 60 60 60 60 60 60 60 61 61
53 53 53 53 53 53 53 53 54 54 54 54 54 54 54 54 54 54 54 54 55 55 55 54 54 54 54 54 54 54 54 55 55 55 55 54 54 54 55 56 56 56 56 56 56 56 56 55 55 55 55 55 54 54 54 54 54 55 56 58 58 59 58 58 58 58 58 58 58 59 59 60 60 60 60 60 60 60 60 60 60 60 60 60 60 60 60 60 60 60 60 60 60 60 60 60 60 60 60 60 60 60 61
53 53 54 54 54 54 53 53 53 54 54 55 55 55 55 55 54 54 54 55 55 55 55 55 55 55 55 54 54 54 54 54 54 55 55 55 55 55 55 56 56 56 56 56 55 55 55 55 55 55 55 55 55 55 55 54 54 54 55 57 58 59 59 58 58 58 58 58 58 59 59 59 60 60 60 60 60 60 60 60 60 60 60 60 60 60 60 60 61 61 60 60 60 60 60 60 60 60 60 60 60 60 60
53 54 55 55 55 54 54 53 53 53 54 55 55 55 55 54 54 54 54 55 56 56 56 56 56 55 55 55 54 54 54 54 54 54 55 55 55 55 55 56 56 56 56 55 55 55 55 55 55 55 55 55 54 54 54 54 54 54 54 56 57 58 59 59 59 58 58 58 58 58 59 59 60 60 60 60 60 60 60 60 60 60 60 60 60 60 60 61 61 61 61 60 60 60 60 60 60 60 60 60 60 60 60
54 54 54 54 55 55 54 54 54 54 54 55 55 55 55 54 54 54 55 56 57 57 57 56 56 55 55 55 54 53 53 53 53 53 54 54 55 55 55 56 56 56 56 55 55 55 55 55 54 54 54 54 53 53 53 54 54 54 54 56 57 58 59 59 59 59 59 59 58 58 59 59 59 60 60 60 60 60 60 60 60 60 60 60 60 60 61 61 61 61 61 61 61 60 60 60 60 60 60 60 60 60 60
55 54 54 54 54 54 54 54 54 54 55 55 55 55 55 54 55 55 55 56 56 56 56 56 56 55 55 54 54 53 53 53 53 53 54 54 54 54 55 54 55 55 55 55 55 55 55 54 54 54 54 54 54 54 54 54 54 55 55 55 55 56 57 58 58 58 59 59 59 59 59 59 59 59 59 60 60 60 60 60 60 60 60 60 60 60 61 61 61 61 61 61 61 61 61 61 61 60 60 60 60 60 60
54 54 54 54 53 54 54 54 54 54 54 54 54 55 55 55 55 55 55 56 56 56 56 56 55 55 55 55 55 54 54 53 54 54 54 54 54 55 54 54 55 55 55 55 55 55 55 55 55 54 54 54 54 55 55 55 55 55 55 55 55 55 55 55 56 57 58 59 59 59 59 59 59 59 59 59 59 60 60 60 60 60 60 60 60 60 60 61 61 61 61 61 61 61 61 61 61 61 61 60 60 60 60
55 54 54 54 54 54 54 55 55 55 54 54 55 55 55 55 55 55 55 56 56 56 56 56 56 56 55 55 55 55 54 54 53 53 54 55 55 55 55 55 55 55 55 55 55 55 55 55 55 55 54 55 55 55 55 55 55 55 55 55 55 55 55 55 55 55 56 58 59 59 59 59 59 59 59 59 59 59 60 60 60 60 60 60 60 60 60 61 61 61 61 61 61 61 62 61 61 61 61 61 61 61 61
55 55 55 55 55 55 55 55 55 54 54 55 55 55 55 55 55 55 55 56 56 56 56 56 56 56 56 55 55 55 55 55 54 54 54 54 55 55 55 55 55 55 55 55 55 55 55 55 55 55 55 55 55 55 55 55 55 55 55 55 55 55 55 55 55 55 55 56 57 58 59 59 59 59 59 59 59 59 60 60 60 60 60 60 60 60 60 61 61 61 61 61 61 61 62 62 62 61 61 61 61 61 61
55 55 55 55 55 56 56 55 55 55 55 56 56 56 56 55 55 55 55 56 56 56 56 56 56 56 56 55 55 55 55 55 55 55 55 54 54 54 54 55 55 55 55 55 55 55 55 55 55 55 55 55 55 55 55 55 55 55 55 55 55 55 55 55 55 55 55 55 56 57 58 59 59 59 59 59 59 59 59 60 60 60 60 60 60 60 60 60 61 61 61 61 61 61 62 62 62 62 61 61 61 61 61
55 54 54 54 55 56 56 55 55 56 57 58 58 57 56 55 55 55 55 56 56 56 57 57 57 56 56 55 55 55 56 56 56 55 55 54 54 53 53 54 54 54 54 55 55 55 55 55 55 55 55 55 55 55 55 55 55 55 55 55 55 55 55 56 56 56 56 56 56 56 57 58 59 59 59 59 59 59 59 59 60 60 60 60 60 60 60 60 60 61 61 61 61 61 61 62 62 62 62 61 61 61 61
54 53 53 54 55 56 56 57 57 58 58 58 57 56 55 55 55 55 56 56 56 56 56 57 57 56 55 55 55 55 56 56 56 55 55 54 53 53 53 53 54 54 54 54 55 55 55 56 56 56 56 56 56 55 55 55 55 54 54 55 55 55 56 57 57 56 56 56 56 55 56 57 58 59 59 59 59 59 59 59 59 59 59 59 60 60 60 60 60 60 60 61 61 61 61 61 61 62 62 61 61 61 61
54 54 54 54 55 56 57 58 58 57 55 55 54 54 54 54 55 57 58 57 56 56 56 56 56 56 55 55 55 56 56 56 55 54 54 53 53 53 53 53 53 53 54 54 55 55 55 56 57 57 57 57 56 55 55 55 55 55 54 55 55 55 56 56 56 56 56 56 55 55 55 56 57 58 59 59 59 59 59 59 59 59 59 59 59 60 60 60 60 60 60 60 61 61 61 61 61 61 61 61 61 61 61
54 55 55 56 56 57 58 57 56 55 54 54 54 54 53 54 55 57 57 57 56 55 55 55 56 56 56 56 56 56 56 55 55 54 54 54 53 53 53 53 53 53 53 54 54 55 56 56 57 58 58 57 57 56 55 55 55 55 55 55 55 55 55 56 56 55 55 55 55 55 55 55 56 57 58 59 59 59 59 59 59 59 59 59 59 60 60 60 60 60 60 60 60 61 61 61 61 62 62 61 61 61 61
55 55 56 57 57 57 56 55 54 54 54 54 54 54 54 54 55 55 56 56 55 55 55 55 55 56 56 57 56 56 55 55 55 55 55 54 54 54 53 53 53 53 53 53 54 54 55 56 57 57 58 57 57 56 56 55 55 55 55 55 55 55 55 55 55 55 55 55 55 55 55 55 55 55 56 57 58 58 59 59 59 59 60 60 60 60 60 60 60 60 60 60 60 60 61 61 61 62 62 62 62 62 62
56 56 57 57 57 56 55 54 53 54 55 55 55 55 54 54 54 55 55 55 55 55 55 55 55 56 57 57 57 56 56 56 56 56 55 55 55 54 54 53 53 53 53 53 53 53 54 55 57 57 57 57 57 56 56 56 56 55 55 55 55 55 55 54 54 54 54 54 55 55 55 55 55 55 55 56 57 57 58 59 59 59 60 60 60 60 60 60 60 60 60 60 60 60 61 61 61 62 62 62 62 62 62
57 57 57 56 55 55 53 53 55 56 57 56 55 55 54 54 55 55 55 54 54 54 55 56 56 56 56 56 56 55 56 56 56 56 56 55 55 55 54 53 53 53 52 53 53 53 53 55 55 56 57 57 57 57 56 56 56 56 56 56 55 55 54 54 54 54 54 54 55 55 55 55 55 55 55 56 57 57 57 58 59 59 60 60 60 60 60 60 60 60 60 60 61 61 61 61 62 62 62 62 62 62 62
56 55 55 54 54 54 54 54 55 56 57 56 55 54 54 55 55 55 55 54 54 55 56 56 56 55 55 55 55 55 55 55 55 55 55 55 55 54 53 52 52 52 53 52 52 53 54 53 54 55 56 57 57 57 57 57 57 56 56 56 55 55 54 54 54 54 54 55 55 55 55 55 55 55 55 55 56 57 57 58 58 59 60 60 60 60 60 60 60 60 60 61 61 61 61 61 61 62 61 61 61 61 61
55 54 53 53 54 54 54 55 55 56 56 55 55 55 55 55 55 55 55 55 55 56 56 56 56 55 54 54 54 55 54 55 55 55 55 55 54 53 52 52 52 52 52 52 52 53 54 54 55 55 56 56 57 57 57 57 56 56 56 56 55 55 55 55 55 55 55 55 55 55 55 55 55 55 54 55 55 56 57 57 58 58 59 60 60 60 60 60 60 60 60 60 60 61 61 61 61 61 61 61 61 61 61
53 53 53 53 54 54 54 55 55 56 55 55 55 55 55 55 54 54 55 55 56 56 56 55 55 55 55 54 54 54 54 54 54 55 54 54 53 52 51 51 51 51 51 52 52 53 55 55 55 56 56 55 55 55 55 55 55 55 56 56 56 56 56 56 56 56 55 55 55 56 55 55 55 55 55 55 55 56 57 58 58 59 59 60 60 60 60 60 60 60 60 60 60 60 60 61 61 61 61 61 61 61 61
53 53 54 54 54 54 54 55 55 55 55 55 55 55 55 54 54 55 55 56 56 56 55 55 55 55 55 54 54 54 53 53 53 54 54 54 54 53 52 51 51 50 50 51 52 54 57 57 56 55 54 53 53 53 54 55 55 55 56 57 57 57 56 56 56 56 56 56 56 56 56 55 55 55 56 56 57 58 58 59 59 59 59 59 59 60 60 60 60 60 60 60 60 60 60 60 60 61 61 61 61 61 61
53 54 54 54 54 54 54 54 54 55 55 55 55 55 54 54 54 55 56 56 55 55 55 55 54 54 55 54 54 54 53 53 53 53 54 54 54 54 53 51 49 48 49 49 51 54 57 55 54 53 51 51 52 53 54 55 55 55 56 57 56 56 56 56 56 57 57 56 56 56 55 55 55 56 56 58 59 59 58 59 59 59 59 59 59 59 59 60 60 60 60 60 60 60 60 60 60 60 60 61 61 61 61
53 54 54 54 54 54 53 53 54 55 55 55 55 54 54 54 55 55 56 55 55 55 55 55 55 54 54 54 54 53 52 52 53 53 55 55 54 53 51 50 48 47 48 48 48 50 52 51 51 51 51 52 52 53 54 54 55 55 55 55 55 55 55 56 57 57 57 56 56 55 55 56 56 56 57 59 59 59 59 59 59 59 59 59 59 59 59 59 60 60 60 60 60 60 60 60 60 60 60 60 60 60 61
53 54 54 53 53 53 52 52 53 55 55 55 55 54 54 55 55 55 55 55 55 55 55 55 55 54 54 53 52 52 52 52 53 53 55 55 55 53 51 51 50 49 49 47 46 46 47 48 49 50 51 51 52 53 53 53 54 54 55 54 55 55 56 57 57 57 56 56 55 56 56 56 56 57 58 58 59 59 59 59 59 59 59 59 59 59 59 59 59 60 60 59 60 60 60 60 60 60 60 60 60 60 60
53 53 53 52 52 52 52 52 53 54 54 54 54 54 55 55 55 55 55 55 55 55 55 55 55 55 53 52 51 51 51 52 53 53 54 54 55 54 52 52 51 50 47 46 45 45 46 48 49 50 50 51 52 52 52 53 53 54 55 55 54 55 55 56 56 55 55 56 56 57 57 56 57 58 58 58 58 59 59 59 59 59 59 59 59 59 59 59 59 59 59 59 59 59 59 60 60 60 60 60 60 60 60
52 52 51 51 51 51 51 52 53 54 54 54 54 55 55 55 55 55 55 55 55 55 55 55 55 55 54 52 51 51 51 52 53 53 53 53 54 55 55 53 51 50 48 45 45 46 48 50 50 50 49 51 51 51 51 52 53 53 54 54 54 54 55 55 55 55 55 56 57 57 57 58 58 58 58 58 58 58 58 59 59 59 59 59 59 59 59 59 59 59 59 59 59 59 60 60 60 60 60 60 60 60 60
52 52 51 50 50 51 51 52 53 54 53 54 54 55 55 55 55 55 55 55 55 55 55 55 55 55 54 53 52 52 52 51 52 53 53 53 53 55 56 55 54 52 50 49 48 49 51 51 51 49 48 50 51 51 51 51 52 52 53 54 54 53 53 54 54 55 55 56 57 57 58 58 58 58 58 58 58 58 58 58 58 59 59 59 58 58 58 58 58 58 59 59 59 60 60 60 60 60 61 61 60 60 60
51 51 50 50 50 50 51 53 54 54 54 54 55 55 55 55 55 55 55 54 54 55 55 55 55 55 54 54 53 52 52 51 52 52 53 53 53 54 55 55 55 55 55 54 53 52 51 51 50 49 49 49 50 51 51 51 51 51 52 53 53 53 53 53 54 55 55 56 56 57 57 58 58 58 58 57 57 57 57 57 58 58 58 58 58 57 57 57 57 58 58 59 59 59 58 58 59 60 60 61 61 61 60
51 51 50 50 50 50 51 53 54 54 55 55 55 55 55 55 55 55 55 54 54 54 55 55 55 55 55 54 53 53 51 51 51 52 53 53 53 53 52 52 52 53 54 54 54 53 52 51 50 50 50 48 48 49 50 50 50 51 51 52 52 52 52 53 54 54 55 55 56 56 57 58 58 58 58 57 57 56 56 57 57 58 57 57 57 56 56 57 57 57 58 59 58 57 56 56 57 58 60 60 61 61 61
51 51 51 50 50 51 51 53 53 54 54 55 55 55 55 55 55 54 54 54 54 54 55 55 55 55 55 54 53 52 52 51 52 52 53 52 52 52 53 52 51 51 51 52 52 52 53 52 52 51 51 49 48 48 48 49 49 50 51 51 51 51 52 52 53 54 54 54 55 56 57 58 59 58 58 57 56 56 56 56 56 56 56 56 56 56 56 56 56 57 58 59 58 56 55 55 56 57 58 60 60 61 61
51 51 51 51 50 50 51 52 53 53 54 55 55 55 55 54 54 54 54 54 54 55 55 55 55 56 55 54 53 53 53 52 52 52 53 52 52 52 53 53 52 52 51 51 51 51 51 52 52 52 52 51 50 48 47 47 48 49 49 50 51 51 51 52 52 53 53 54 54 55 56 58 58 58 57 56 56 55 55 56 56 55 55 55 55 56 56 56 56 56 58 58 57 55 54 55 55 56 58 59 60 60 61